W4BOD Weather Reports


Display with metric or nautical units.
time (UTC)temp
F
wind
direction
speed
MPH
gust
MPH
rain 1hr
in
rain 24hr
in
rain mn
in
humidity
%
barometer
mb
20260906012542 85 276 3.0 5.0 0.00 0.00 0.00 70 1011.2
20260906012041 84 256 2.0 2.0 0.00 0.00 0.00 72 1011.3
20260906011538 84 281 1.0 2.0 0.00 0.00 0.00 72 1011.3
20260906011037 84 311 1.0 1.0 0.00 0.00 0.00 72 1011.5
20260906010533 85 338 0.0 0.0 0.00 0.00 0.00 71 1011.4
20260906010029 85 323 0.0 1.0 0.00 0.00 0.00 71 1011.0
20260906005528 85 353 0.0 0.0 0.00 0.00 0.00 70 1011.0
20260906005027 85 322 1.0 1.0 0.00 0.00 0.00 70 1011.1
20260906004526 86 339 0.0 1.0 0.00 0.00 0.00 70 1011.1
20260906004022 86 295 1.0 2.0 0.00 0.00 0.00 69 1011.1
20260906003517 87 30 1.0 2.0 0.00 0.00 0.00 67 1011.3
20260906003013 87 15 1.0 1.0 0.00 0.00 0.00 67 1011.6
20260906002507 87 294 1.0 2.0 0.00 0.00 0.00 67 1011.6
20260906002002 88 58 1.0 2.0 0.00 0.00 0.00 67 1011.9
20260906001458 89 57 1.0 5.0 0.00 0.00 0.00 67 1011.8
20260906000952 89 16 1.0 5.0 0.00 0.00 0.00 66 1011.5
20260906000448 90 307 1.0 2.0 0.00 0.00 0.00 68 1011.6
20260905235941 91 317 3.0 7.0 0.00 0.00 0.00 66 1011.9
20260905235436 92 40 3.0 6.0 0.00 0.00 0.00 66 1011.7
20260905234931 92 79 3.0 6.0 0.00 0.00 0.00 66 1011.4
20260905234427 94 33 1.0 8.0 0.00 0.00 0.00 66 1011.2
20260905233921 95 68 2.0 3.0 0.00 0.00 0.00 63 1011.4
20260905233417 95 353 0.0 0.0 0.00 0.00 0.00 63 1011.0
20260905232915 95 312 0.0 1.0 0.00 0.00 0.00 63 1010.8
20260905232412 95 316 1.0 1.0 0.00 0.00 0.00 63 1010.8
20260905231906 95 347 0.0 1.0 0.00 0.00 0.00 63 1010.9
20260905231402 95 293 1.0 2.0 0.00 0.00 0.00 64 1010.8
20260905230853 95 16 1.0 1.0 0.00 0.00 0.00 67 1010.6
20260905230350 96 266 1.0 2.0 0.00 0.00 0.00 62 1010.6
20260905225850 96 2 0.0 1.0 0.00 0.00 0.00 63 1010.5
20260905225345 96 31 1.0 1.0 0.00 0.00 0.00 61 1010.6
20260905224840 97 315 0.0 1.0 0.00 0.00 0.00 61 1010.9
20260905224335 98 285 1.0 2.0 0.00 0.00 0.00 59 1010.8
20260905223830 99 170 1.0 2.0 0.00 0.00 0.00 55 1010.9
20260905223327 99 314 1.0 3.0 0.00 0.00 0.00 56 1010.8
20260905222817 99 6 1.0 2.0 0.00 0.00 0.00 54 1010.8
20260905222316 99 338 0.0 5.0 0.00 0.00 0.00 54 1010.8
20260905221812 99 43 1.0 5.0 0.00 0.00 0.00 53 1010.6
20260905221309 101 10 3.0 3.0 0.00 0.00 0.00 51 1010.8
20260905220804 102 346 1.0 1.0 0.00 0.00 0.00 47 1010.6
20260905220300 102 323 1.0 1.0 0.00 0.00 0.00 48 1010.6
20260905215759 102 345 0.0 1.0 0.00 0.00 0.00 49 1010.7
20260905215255 102 311 1.0 1.0 0.00 0.00 0.00 52 1010.7
20260905214751 102 297 1.0 3.0 0.00 0.00 0.00 47 1010.5
20260905214247 102 320 0.0 2.0 0.00 0.00 0.00 49 1010.7
20260905213742 101 318 1.0 1.0 0.00 0.00 0.00 52 1010.7
20260905213238 101 295 2.0 3.0 0.00 0.00 0.00 52 1010.7
20260905212733 101 14 1.0 1.0 0.00 0.00 0.00 49 1010.6
20260905212232 102 317 0.0 2.0 0.00 0.00 0.00 50 1010.9
20260905211731 101 303 1.0 2.0 0.00 0.00 0.00 48 1010.9
20260905211227 98 304 0.0 2.0 0.00 0.00 0.00 53 1010.9
20260905210724 100 272 2.0 5.0 0.00 0.00 0.00 51 1011.2
20260905210223 102 287 1.0 1.0 0.00 0.00 0.00 47 1010.9
20260905205722 101 310 1.0 5.0 0.00 0.00 0.00 48 1011.1
20260905205216 101 326 1.0 2.0 0.00 0.00 0.00 48 1011.2
20260905204716 102 344 1.0 8.0 0.00 0.00 0.00 47 1011.2
20260905204212 103 292 1.0 3.0 0.00 0.00 0.00 45 1011.1
20260905203706 103 225 5.0 7.0 0.00 0.00 0.00 46 1011.2
20260905203202 102 319 0.0 2.0 0.00 0.00 0.00 50 1011.3
20260905202657 103 356 2.0 3.0 0.00 0.00 0.00 46 1011.5
20260905202152 103 355 1.0 1.0 0.00 0.00 0.00 45 1011.4
20260905201648 101 321 2.0 2.0 0.00 0.00 0.00 46 1011.6
20260905201147 100 268 2.0 3.0 0.00 0.00 0.00 49 1011.4
20260905200643 100 315 1.0 2.0 0.00 0.00 0.00 49 1011.7
20260905200138 100 320 0.0 2.0 0.00 0.00 0.00 50 1011.8
20260905195636 101 304 1.0 5.0 0.00 0.00 0.00 50 1011.9
20260905195132 102 239 4.0 6.0 0.00 0.00 0.00 49 1011.9
20260905194626 100 317 0.0 3.0 0.00 0.00 0.00 48 1012.2
20260905194126 102 323 1.0 6.0 0.00 0.00 0.00 50 1012.2
20260905193621 102 307 2.0 2.0 0.00 0.00 0.00 48 1012.1
20260905193116 102 336 3.0 8.0 0.00 0.00 0.00 52 1012.2
20260905192612 100 260 3.0 6.0 0.00 0.00 0.00 51 1012.1
20260905192108 99 320 2.0 6.0 0.00 0.00 0.00 53 1012.1
20260905191606 100 213 3.0 3.0 0.00 0.00 0.00 53 1012.3
20260905191105 100 237 1.0 2.0 0.00 0.00 0.00 52 1012.4
20260905190604 100 267 3.0 5.0 0.00 0.00 0.00 53 1012.6
20260905185602 98 345 2.0 3.0 0.00 0.00 0.00 53 1012.6
20260905185056 98 202 4.0 6.0 0.00 0.00 0.00 53 1012.5
20260905184551 100 291 5.0 5.0 0.00 0.00 0.00 51 1012.7
20260905184049 101 251 1.0 6.0 0.00 0.00 0.00 54 1012.8
20260905183544 100 147 3.0 6.0 0.00 0.00 0.00 56 1012.7
20260905183039 99 267 3.0 6.0 0.00 0.00 0.00 61 1013.1
20260905182538 98 265 4.0 5.0 0.00 0.00 0.00 57 1013.1
20260905182033 98 297 3.0 8.0 0.00 0.00 0.00 58 1013.3
20260905181528 99 271 3.0 7.0 0.00 0.00 0.00 57 1013.4
20260905181027 98 285 2.0 3.0 0.00 0.00 0.00 58 1013.4
20260905180521 99 268 3.0 5.0 0.00 0.00 0.00 57 1013.2
20260905180012 99 261 5.0 7.0 0.00 0.00 0.00 56 1013.5
20260905175511 98 263 4.0 7.0 0.00 0.00 0.00 58 1013.5
20260905175007 98 255 3.0 5.0 0.00 0.00 0.00 59 1013.5
20260905174502 99 283 1.0 2.0 0.00 0.00 0.00 57 1013.6
20260905173957 99 344 0.0 1.0 0.00 0.00 0.00 58 1013.6
20260905173453 97 323 1.0 3.0 0.00 0.00 0.00 61 1013.6
20260905172949 98 257 3.0 5.0 0.00 0.00 0.00 62 1013.9
20260905172447 97 295 2.0 5.0 0.00 0.00 0.00 62 1014.0
20260905171943 98 352 0.0 2.0 0.00 0.00 0.00 59 1014.0
20260905171439 97 21 1.0 2.0 0.00 0.00 0.00 60 1013.9
20260905170935 95 315 0.0 2.0 0.00 0.00 0.00 63 1014.0
20260905170431 95 258 5.0 6.0 0.00 0.00 0.00 67 1014.1
20260905165931 95 248 3.0 6.0 0.00 0.00 0.00 65 1014.1
20260905165426 96 303 1.0 5.0 0.00 0.00 0.00 63 1014.1
20260905164920 96 311 1.0 3.0 0.00 0.00 0.00 64 1014.3
20260905164414 95 275 1.0 3.0 0.00 0.00 0.00 64 1014.1
20260905163910 95 254 2.0 2.0 0.00 0.00 0.00 66 1014.5
20260905163407 93 309 1.0 5.0 0.00 0.00 0.00 69 1014.5
20260905162902 93 270 2.0 3.0 0.00 0.00 0.00 68 1014.6
20260905162356 93 297 1.0 2.0 0.00 0.00 0.00 69 1014.6
20260905161851 92 249 5.0 6.0 0.00 0.00 0.00 69 1014.7
20260905161350 92 327 0.0 0.0 0.00 0.00 0.00 69 1014.6
20260905160849 93 344 0.0 3.0 0.00 0.00 0.00 69 1014.9
20260905160343 93 292 3.0 3.0 0.00 0.00 0.00 68 1014.8
20260905155837 91 4 1.0 1.0 0.00 0.00 0.00 70 1014.9
20260905155336 90 293 2.0 3.0 0.00 0.00 0.00 74 1015.1
20260905154831 91 277 2.0 5.0 0.00 0.00 0.00 73 1015.0
20260905154326 90 324 1.0 3.0 0.00 0.00 0.00 74 1015.1
20260905153822 89 110 1.0 2.0 0.00 0.00 0.00 77 1015.1
20260905153318 87 223 2.0 2.0 0.00 0.00 0.00 80 1015.2
20260905152818 87 278 3.0 3.0 0.00 0.00 0.00 81 1015.3
20260905152317 87 282 0.0 2.0 0.00 0.00 0.00 81 1015.2
20260905151812 86 315 1.0 2.0 0.00 0.00 0.00 83 1015.1
20260905151307 86 316 1.0 1.0 0.00 0.00 0.00 86 1015.1
20260905150802 85 309 1.0 1.0 0.00 0.00 0.00 87 1015.3
20260905150302 84 304 1.0 2.0 0.00 0.00 0.00 89 1015.1
20260905145759 84 345 0.0 2.0 0.00 0.00 0.00 89 1015.1
20260905145254 84 342 0.0 1.0 0.00 0.00 0.00 90 1015.3
20260905144752 84 291 2.0 2.0 0.00 0.00 0.00 89 1015.2
20260905144248 84 328 0.0 1.0 0.00 0.00 0.00 90 1015.2
20260905143746 84 338 0.0 0.0 0.00 0.00 0.00 90 1015.1
20260905143241 84 339 1.0 1.0 0.00 0.00 0.00 90 1015.2
20260905142740 84 325 0.0 2.0 0.00 0.00 0.00 91 1015.5
20260905142234 84 312 1.0 2.0 0.00 0.00 0.00 91 1015.5
20260905141730 83 328 0.0 1.0 0.00 0.00 0.00 91 1015.4
20260905141225 83 325 0.0 1.0 0.00 0.00 0.00 91 1015.2
20260905140721 83 334 0.0 1.0 0.00 0.00 0.00 92 1015.4
20260905140215 82 345 0.0 0.0 0.00 0.00 0.00 92 1015.3
20260905135709 82 347 0.0 0.0 0.00 0.00 0.00 92 1015.3
20260905135206 82 333 0.0 0.0 0.00 0.00 0.00 92 1015.4
20260905134704 82 333 0.0 0.0 0.00 0.00 0.00 93 1015.2
20260905134204 82 333 0.0 0.0 0.00 0.00 0.00 93 1015.2
20260905133659 81 334 0.0 0.0 0.00 0.00 0.00 93 1015.3
20260905133154 81 330 0.0 0.0 0.00 0.00 0.00 93 1015.4
20260905132653 81 330 0.0 0.0 0.00 0.00 0.00 93 1015.4
20260905132149 81 330 0.0 0.0 0.00 0.00 0.00 94 1015.3
20260905131644 81 328 0.0 0.0 0.00 0.00 0.00 94 1015.4
20260905131138 80 330 0.0 0.0 0.00 0.00 0.00 95 1015.5
20260905130632 80 329 0.0 1.0 0.00 0.00 0.00 95 1015.4
20260905130126 80 341 0.0 0.0 0.00 0.00 0.00 96 1015.5
20260905125621 80 340 0.0 0.0 0.00 0.00 0.00 97 1015.4
20260905125117 79 335 0.0 0.0 0.00 0.00 0.00 98 1015.4
20260905124613 79 335 0.0 0.0 0.00 0.00 0.00 98 1015.4
20260905124108 79 335 0.0 0.0 0.00 0.00 0.00 99 1015.3
20260905123558 79 335 0.0 0.0 0.00 0.00 0.00 99 1015.4
20260905123055 78 335 0.0 0.0 0.00 0.00 0.00 99 1015.2
20260905122555 78 3 0.0 0.0 0.00 0.00 0.00 99 1015.3
20260905122055 78 3 0.0 0.0 0.00 0.00 0.00 99 1015.3
20260905121550 78 3 0.0 0.0 0.00 0.00 0.00 99 1015.1
20260905121045 77 3 0.0 0.0 0.00 0.00 0.00 99 1015.1
20260905120544 77 3 0.0 0.0 0.00 0.00 0.00 99 1015.2
20260905120040 77 3 0.0 0.0 0.00 0.00 0.00 99 1015.0
20260905115538 77 3 0.0 0.0 0.00 0.00 0.00 99 1015.1
20260905115033 77 3 0.0 0.0 0.00 0.00 0.00 99 1015.1
20260905114533 77 3 0.0 0.0 0.00 0.00 0.00 99 1014.9
20260905114032 77 3 0.0 0.0 0.00 0.00 0.00 99 1015.0
20260905113527 77 3 0.0 0.0 0.00 0.00 0.00 99 1014.7
20260905113022 77 3 0.0 0.0 0.00 0.00 0.00 99 1014.7
20260905112518 77 3 0.0 0.0 0.00 0.00 0.00 99 1014.7
20260905112013 77 3 0.0 0.0 0.00 0.00 0.00 99 1014.6
20260905111513 77 3 0.0 0.0 0.00 0.00 0.00 99 1014.4
20260905111007 77 3 0.0 0.0 0.00 0.00 0.00 99 1014.5
20260905110506 77 3 0.0 0.0 0.00 0.00 0.00 99 1014.3
20260905110001 77 3 0.0 0.0 0.00 0.00 0.00 99 1014.0
20260905105455 77 3 0.0 0.0 0.00 0.00 0.00 99 1014.1
20260905104955 77 3 0.0 0.0 0.00 0.00 0.00 99 1014.1
20260905104451 77 3 0.0 0.0 0.00 0.00 0.00 99 1014.2
20260905103945 77 3 0.0 0.0 0.00 0.00 0.00 99 1014.1
20260905103440 78 3 0.0 0.0 0.00 0.00 0.00 99 1014.2
20260905102937 78 3 0.0 0.0 0.00 0.00 0.00 99 1014.3
20260905102432 78 3 0.0 0.0 0.00 0.00 0.00 99 1014.1
20260905101927 78 3 0.0 0.0 0.00 0.00 0.00 99 1014.0
20260905101426 78 3 0.0 0.0 0.00 0.00 0.00 99 1014.0
20260905100921 78 3 0.0 0.0 0.00 0.00 0.00 99 1014.0
20260905100417 78 7 0.0 2.0 0.00 0.00 0.00 99 1014.0
20260905095916 78 6 0.0 1.0 0.00 0.00 0.00 99 1014.0
20260905095411 78 5 0.0 1.0 0.00 0.00 0.00 99 1014.0
20260905094911 78 8 1.0 1.0 0.00 0.00 0.00 99 1013.9
20260905094407 78 1 0.0 1.0 0.00 0.00 0.00 99 1013.9
20260905093905 78 0 0.0 0.0 0.00 0.00 0.00 99 1013.9
20260905093401 79 0 0.0 0.0 0.00 0.00 0.00 98 1013.9
20260905092857 78 1 0.0 1.0 0.00 0.00 0.00 98 1014.0
20260905092356 78 359 0.0 0.0 0.00 0.00 0.00 98 1013.6
20260905091851 78 359 0.0 0.0 0.00 0.00 0.00 98 1013.7
20260905091346 79 359 0.0 0.0 0.00 0.00 0.00 98 1013.8
20260905090845 78 359 0.0 0.0 0.00 0.00 0.00 98 1013.9
20260905090341 78 359 0.0 0.0 0.00 0.00 0.00 97 1013.8
20260905085840 78 359 0.0 0.0 0.00 0.00 0.00 97 1013.7
20260905085339 79 359 0.0 0.0 0.00 0.00 0.00 97 1013.9
20260905084835 78 359 0.0 0.0 0.00 0.00 0.00 97 1013.7
20260905084334 78 359 0.0 1.0 0.00 0.00 0.00 97 1013.7
20260905083829 78 359 0.0 0.0 0.00 0.00 0.00 97 1013.9
20260905083326 78 359 0.0 0.0 0.00 0.00 0.00 97 1014.0
20260905082820 78 359 0.0 0.0 0.00 0.00 0.00 97 1013.9
20260905082317 78 359 0.0 0.0 0.00 0.00 0.00 96 1013.9
20260905081812 79 359 0.0 0.0 0.00 0.00 0.00 96 1013.8
20260905081307 78 359 0.0 0.0 0.00 0.00 0.00 96 1013.9
20260905080805 78 359 0.0 0.0 0.00 0.00 0.00 96 1014.0
20260905080300 78 359 0.0 0.0 0.00 0.00 0.00 96 1013.9
20260905075758 78 359 0.0 0.0 0.00 0.00 0.00 95 1013.9
20260905075253 78 359 0.0 0.0 0.00 0.00 0.00 95 1013.8
20260905074751 78 359 0.0 0.0 0.00 0.00 0.00 95 1013.9
20260905074248 79 359 0.0 0.0 0.00 0.00 0.00 95 1013.7
20260905073737 79 359 0.0 0.0 0.00 0.00 0.00 95 1013.7
20260905073233 79 359 0.0 0.0 0.00 0.00 0.00 94 1014.0
20260905072732 79 359 0.0 0.0 0.00 0.00 0.00 94 1013.9
20260905072227 79 359 0.0 0.0 0.00 0.00 0.00 93 1013.9
20260905071724 80 359 0.0 0.0 0.00 0.00 0.00 93 1013.9
20260905071220 80 359 0.0 0.0 0.00 0.00 0.00 92 1013.9
20260905070714 80 0 0.0 0.0 0.00 0.00 0.00 91 1014.1
20260905070211 80 358 0.0 1.0 0.00 0.00 0.00 92 1014.0
20260905065709 80 9 1.0 2.0 0.00 0.00 0.00 92 1014.2
20260905065204 80 12 1.0 1.0 0.00 0.00 0.00 93 1014.3
20260905064659 80 356 1.0 1.0 0.00 0.00 0.00 93 1014.2
20260905064154 80 356 0.0 0.0 0.00 0.00 0.00 93 1014.2
20260905063653 80 356 0.0 0.0 0.00 0.00 0.00 92 1014.1
20260905063149 80 356 0.0 0.0 0.00 0.00 0.00 92 1014.3
20260905062645 81 359 0.0 0.0 0.00 0.00 0.00 91 1014.1
20260905062144 80 30 0.0 0.0 0.00 0.00 0.00 92 1014.4
20260905061639 80 356 0.0 0.0 0.00 0.00 0.00 92 1014.3
20260905061138 80 355 0.0 0.0 0.00 0.00 0.00 92 1014.2
20260905060634 81 0 0.0 0.0 0.00 0.00 0.00 91 1014.4
20260905060131 81 7 0.0 0.0 0.00 0.00 0.00 92 1014.3
20260905055628 80 29 0.0 0.0 0.00 0.00 0.00 92 1014.3
20260905055124 80 356 0.0 0.0 0.00 0.00 0.00 92 1014.1
20260905054620 80 356 0.0 0.0 0.00 0.00 0.00 91 1014.3
20260905054115 81 356 0.0 0.0 0.00 0.00 0.00 91 1014.2
20260905053615 81 356 0.0 0.0 0.00 0.00 0.00 90 1014.2
20260905053110 81 356 0.0 0.0 0.00 0.00 0.00 89 1014.0
20260905052609 81 356 0.0 0.0 0.00 0.00 0.00 89 1014.1
20260905052104 82 356 0.0 0.0 0.00 0.00 0.00 88 1014.1
20260905051559 82 356 0.0 0.0 0.00 0.00 0.00 88 1014.1
20260905051055 82 356 0.0 0.0 0.00 0.00 0.00 87 1014.3
20260905050546 82 356 0.0 0.0 0.00 0.00 0.00 88 1014.1
20260905050043 81 355 0.0 0.0 0.00 0.00 0.00 89 1014.0
20260905045542 82 355 0.0 0.0 0.00 0.00 0.00 88 1014.0
20260905045033 82 356 0.0 0.0 0.00 0.00 0.00 88 1014.1
20260905044533 82 356 0.0 0.0 0.00 0.00 0.00 87 1014.2
20260905044033 82 356 0.0 0.0 0.00 0.00 0.00 87 1014.1
20260905043532 82 356 0.0 0.0 0.00 0.00 0.00 87 1014.3
20260905043022 82 355 0.0 0.0 0.00 0.00 0.00 86 1014.3
20260905042520 82 355 0.0 0.0 0.00 0.00 0.00 85 1014.2
20260905042016 83 356 0.0 0.0 0.00 0.00 0.00 84 1014.4
20260905041511 83 356 0.0 0.0 0.00 0.00 0.00 83 1014.5
20260905041007 83 355 0.0 0.0 0.00 0.00 0.00 82 1014.2
20260905040506 83 356 0.0 0.0 0.00 0.00 0.00 81 1014.3
20260905040005 84 356 0.0 0.0 0.00 0.00 0.00 81 1014.6
20260905035500 85 356 0.0 0.0 0.00 0.00 0.00 77 1014.5
20260905034957 84 355 0.0 0.0 0.00 0.00 0.00 78 1014.6
20260905034458 83 352 0.0 0.0 0.00 0.00 0.00 80 1014.7
20260905033957 83 358 0.0 0.0 0.00 0.00 0.00 80 1014.5
20260905033451 83 358 0.0 0.0 0.00 0.00 0.00 81 1014.5
20260905032946 84 352 0.0 0.0 0.00 0.00 0.00 80 1014.7
20260905032442 84 351 0.0 0.0 0.00 0.00 0.00 80 1014.8
20260905031936 85 351 0.0 0.0 0.00 0.00 0.00 79 1014.7
20260905031432 85 351 0.0 1.0 0.00 0.00 0.00 79 1014.8
20260905030928 86 348 0.0 1.0 0.00 0.00 0.00 76 1014.8
20260905030423 86 347 0.0 1.0 0.00 0.00 0.00 76 1014.8
20260905025922 86 322 0.0 0.0 0.00 0.00 0.00 76 1014.9
20260905025417 86 337 0.0 1.0 0.00 0.00 0.00 76 1014.8
20260905024914 86 338 0.0 0.0 0.00 0.00 0.00 75 1014.8
20260905024414 86 359 1.0 2.0 0.00 0.00 0.00 76 1014.7
20260905023910 86 293 1.0 1.0 0.00 0.00 0.00 77 1014.7
20260905023405 85 344 1.0 2.0 0.00 0.00 0.00 78 1014.7
20260905022903 85 345 0.0 1.0 0.00 0.00 0.00 79 1014.8
20260905022353 85 348 0.0 0.0 0.00 0.00 0.00 79 1014.7
20260905021848 86 344 1.0 1.0 0.00 0.00 0.00 78 1014.7
20260905021343 86 13 0.0 1.0 0.00 0.00 0.00 77 1014.5
20260905020838 87 338 0.0 0.0 0.00 0.00 0.00 75 1014.7
20260905020332 87 338 0.0 0.0 0.00 0.00 0.00 75 1014.5
20260905015832 87 339 0.0 0.0 0.00 0.00 0.00 74 1014.5
20260905015331 88 339 0.0 0.0 0.00 0.00 0.00 72 1014.7
20260905014825 89 338 0.0 0.0 0.00 0.00 0.00 71 1014.5
20260905014321 89 330 0.0 0.0 0.00 0.00 0.00 70 1014.6
20260905013816 89 342 0.0 0.0 0.00 0.00 0.00 69 1014.6
20260905013312 89 316 0.0 1.0 0.00 0.00 0.00 68 1014.6